This demonstration page uses our WeatherBlox Daily Observations layout. Learn more.

Left ArrowRight Arrow

39.51506, -84.39828

Hourly Observations for September 16, 2016

Temp ( °F °C ) Dew Point ( °F °C ) Humidity (%) Winds ( mph kmh ) Pressure ( in mb ) Visibility ( mi km ) Precip ( " mm )
12:15 am 00:15 Clear 62 16.6 56 13.1 80 80 N N/A 30.15 1021 10 16 N/A
12:35 am 00:35 Clear 62 16.6 55 13 79 79 N N/A 30.15 1021 10 16 N/A
12:55 am 00:55 Clear 62 16.6 55 13 79 79 N N/A 30.15 1021 10 16 N/A
1:15 am 01:15 Clear 62 16.6 55 13 79 79 N N/A 30.15 1021 10 16 N/A
1:35 am 01:35 Clear 61 16.1 55 12.6 80 80 N N/A 30.15 1021 10 16 N/A
1:55 am 01:55 Clear 61 16 55 12.5 80 80 N N/A 30.15 1021 10 16 N/A
2:15 am 02:15 Clear 61 16 55 12.5 80 80 N N/A 30.15 1021 10 16 N/A
2:35 am 02:35 Clear 61 16 55 12.5 80 80 N 3 6 30.15 1021 10 16 N/A
2:55 am 02:55 Clear 61 16 54 12.3 79 79 N N/A 30.15 1021 10 16 N/A
3:15 am 03:15 Clear 60 15.7 54 12.3 80 80 N N/A 30.15 1021 10 16 N/A
3:35 am 03:35 Clear 60 15.4 54 12.1 81 81 N N/A 30.12 1020 10 16 N/A
3:55 am 03:55 Clear 60 15.3 54 12.2 82 82 N N/A 30.12 1020 10 16 N/A
4:15 am 04:15 Clear 60 15.3 54 12 81 81 N N/A 30.12 1020 10 16 N/A
4:35 am 04:35 Clear 60 15.3 54 12 81 81 N N/A 30.15 1021 10 16 N/A
4:55 am 04:55 Clear 60 15.3 54 12.2 82 82 N 5 7 30.12 1020 10 16 N/A
5:15 am 05:15 Clear 60 15.3 54 12.2 82 82 N 3 6 30.12 1020 10 16 N/A
5:35 am 05:35 Clear 60 15.5 54 12.2 81 81 N N/A 30.12 1020 10 16 N/A
5:55 am 05:55 Clear 60 15.3 54 12.1 81 81 N N/A 30.12 1020 10 16 N/A
6:15 am 06:15 Clear 60 15.3 54 12.2 82 82 N 3 6 30.12 1020 10 16 N/A
6:35 am 06:35 Clear 60 15.3 54 12.2 82 82 N N/A 30.12 1020 10 16 N/A
6:55 am 06:55 Clear 60 15.3 54 12.2 82 82 N 3 6 30.15 1021 10 16 N/A
7:15 am 07:15 Clear 60 15.3 54 12.3 82 82 N N/A 30.15 1021 10 16 N/A
7:35 am 07:35 Sunny 60 15.3 54 12.2 82 82 N N/A 30.15 1021 10 16 N/A
7:55 am 07:55 Sunny 60 15.3 54 12.3 82 82 N N/A 30.15 1021 10 16 N/A
8:15 am 08:15 Sunny 61 16 55 12.8 81 81 N N/A 30.15 1021 10 16 N/A
8:35 am 08:35 Sunny 62 16.8 56 13.3 80 80 N N/A 30.12 1020 10 16 N/A
8:55 am 08:55 Sunny 64 18 57 13.7 76 76 NE 3 6 30.12 1020 10 16 N/A
9:15 am 09:15 Sunny 67 19.5 59 14.9 75 75 NE 5 7 30.12 1020 10 16 N/A
9:35 am 09:35 Sunny 69 20.8 60 15.7 73 73 N N/A 30.12 1020 10 16 N/A
9:55 am 09:55 Sunny 69 20.8 60 15.4 71 71 N N/A 30.12 1020 10 16 N/A
10:15 am 10:15 Sunny 69 20.8 59 15.1 70 70 NNE 3 6 30.12 1020 10 16 N/A
10:35 am 10:35 Sunny 73 22.9 62 16.5 67 67 N N/A 30.12 1020 10 16 N/A
10:55 am 10:55 Sunny 74 23.6 62 16.6 65 65 N N/A 30.12 1020 10 16 N/A
11:15 am 11:15 Sunny 77 25.1 63 17.3 62 62 N N/A 30.12 1020 10 16 N/A
11:35 am 11:35 Sunny 79 26.2 64 17.5 59 59 N N/A 30.09 1019 10 16 N/A
11:55 am 11:55 Sunny 80 26.9 63 17 55 55 N N/A 30.09 1019 10 16 N/A
12:15 pm 12:15 Sunny 81 27.2 61 16.1 51 51 ESE 3 6 30.09 1019 10 16 N/A
12:35 pm 12:35 Sunny 82 28 62 16.6 50 50 SSE 6 9 30.09 1019 10 16 N/A
12:55 pm 12:55 Sunny 82 28 62 16.4 49 49 ESE 6 9 30.06 1018 10 16 N/A
1:15 pm 13:15 Sunny 83 28.2 62 16.8 50 50 SSE 3 6 30.06 1018 10 16 N/A
1:35 pm 13:35 Sunny 83 28.5 62 16.8 49 49 ESE 3 6 30.06 1018 10 16 N/A
1:55 pm 13:55 Sunny 85 29.6 64 17.8 49 49 SE 6 9 30.03 1017 10 16 N/A
2:15 pm 14:15 Sunny 86 29.8 63 17.2 47 47 SSW 7 11 30.00 1016 10 16 N/A
2:35 pm 14:35 Sunny 89 31.9 65 18.6 45 45 S 7 11 30.00 1016 10 16 N/A
2:55 pm 14:55 Partly Cloudy 90 32 66 19 46 46 SSE 7 11 30.00 1016 10 16 N/A
3:15 pm 15:15 Partly Cloudy 90 32.1 65 18.2 44 44 S 8 13 30.00 1016 10 16 N/A
3:35 pm 15:35 Sunny 90 32.1 64 18 43 43 S 9 15 30.00 1016 10 16 N/A
3:55 pm 15:55 Sunny 90 32.1 66 18.8 45 45 S 7 11 30.00 1016 10 16 N/A
4:15 pm 16:15 Sunny 90 32.1 65 18.3 44 44 S 6 9 30.00 1016 10 16 N/A
4:35 pm 16:35 Sunny 90 32.1 64 17.9 43 43 S 5 7 29.97 1015 10 16 N/A
4:55 pm 16:55 Sunny 90 32.1 64 17.8 42 42 S 8 13 29.97 1015 10 16 N/A
5:15 pm 17:15 Sunny 86 30.2 64 17.6 47 47 SSW 5 7 29.97 1015 10 16 N/A
5:35 pm 17:35 Sunny 84 29.1 64 17.8 51 51 SW 3 6 29.97 1015 10 16 N/A
5:55 pm 17:55 Mostly Cloudy 83 28.6 66 19.1 56 56 N N/A 29.97 1015 10 16 N/A
6:15 pm 18:15 Mostly Cloudy 81 27.2 70 21.1 69 69 W 5 7 30.00 1016 10 16 N/A
6:35 pm 18:35 Cloudy 80 26.5 64 17.7 59 59 W 18 30 30.03 1017 10 16 N/A
6:55 pm 18:55 Cloudy with Light Rain 74 23.6 67 19.2 76 76 S 8 13 30.03 1017 5 8 N/A
7:15 pm 19:15 Mostly Cloudy with Light Rain 74 23.6 68 19.9 80 80 SSW 3 6 30.03 1017 10 16 N/A
7:35 pm 19:35 Partly Cloudy with Light Rain 74 23.6 68 20 80 80 N N/A 30.00 1016 10 16 N/A
7:55 pm 19:55 Clear 74 23.6 68 20.1 81 81 N N/A 30.00 1016 10 16 N/A
8:15 pm 20:15 Clear 74 23.6 68 20.2 81 81 N N/A 30.00 1016 10 16 N/A
8:35 pm 20:35 Clear 74 23.6 69 20.5 83 83 N N/A 30.00 1016 7 11 N/A
8:55 pm 20:55 Clear 74 23.6 69 20.5 83 83 N N/A 30.00 1016 7 11 N/A
9:15 pm 21:15 Clear 74 23.6 69 20.5 83 83 N N/A 30.00 1016 7 11 N/A
9:35 pm 21:35 Clear 74 23.6 69 20.5 83 83 N N/A 30.00 1016 7 11 N/A
9:55 pm 21:55 Clear 74 23.6 69 20.5 83 83 N N/A 30.00 1016 7 11 N/A
10:15 pm 22:15 Partly Cloudy 74 23.6 68 20 80 80 N N/A 30.03 1017 10 16 N/A
10:35 pm 22:35 Partly Cloudy 74 23.6 68 20.1 81 81 N N/A 30.03 1017 7 11 N/A
10:55 pm 22:55 Partly Cloudy 74 23.6 69 20.3 82 82 N N/A 30.03 1017 7 11 N/A
11:15 pm 23:15 Clear 74 23.6 69 20.5 83 83 N N/A 30.03 1017 7 11 N/A
11:35 pm 23:35 Mostly Cloudy with Haze 74 23.6 69 20.5 83 83 N N/A 30.03 1017 5 8 N/A
11:55 pm 23:55 Mostly Cloudy 74 23.6 69 20.6 83 83 N N/A 30.00 1016 7 11 N/A

Powered by AerisWeather